Regional Weather Roundup
Issued by NWS Goodland, KS

Home | Current Version | Previous Version | Text Only | Print | Product List | Glossary On
Versions: 1 2 3 4 5 6 7 8 9 10 11 12 13 14 15 16 17 18 19 20 21 22 23 24 25 26 27 28 29 30 31 32 33 34 35 36 37 38 39 40 41 42 43 44 45 46 47 48 49 50
000
ASUS43 KGLD 040008
RWRGLD

GOODLAND FORECAST AREA HOURLY WEATHER ROUNDUP
NATIONAL WEATHER SERVICE GOODLAND KS
500 PM MST TUE MAR 03 2015

...OFFICIAL OBSERVATIONS...

CITY           SKY/WX    TMP DP  RH WIND       PRES   REMARKS
GOODLAND KS    CLEAR     28  14  55 NE13      29.87R WCI  17
HILL CITY KS   CLOUDY    33  12  41 NE13      29.94R
IMPERIAL NEB     N/A     26   8  46 N10       29.93R WCI  16
MCCOOK NEB     MOCLDY    32   8  36 NE14      29.94R
AKRON CO       CLOUDY    24  12  60 NE9       29.84S
BURLINGTON CO  CLOUDY    27  14  58 NE9       29.86R
LIMON CO       NOT AVBL
$$

...UNOFFICIAL OBSERVATIONS...

CITY           SKY/WX    TMP DP  RH WIND       PRES   REMARKS
COLBY KS       CLEAR     30  18  59 N10G17    29.90S
GOVE KS          N/A     33  32  96 MISG        N/A
LENORA KS        N/A     32  32 100 S14         N/A
NORTON KS      CLEAR     34   9  35 N16       29.92S
SHARON SPRINGS   N/A     29  20  67 NE9         N/A
KIT CARSON CO    N/A     26  19  73 MISG        N/A
YUMA CO          N/A     26  11  52 NE7         N/A
$$


USA.gov is the U.S. government's official web portal to all federal, state and local government web resources and services.